[[{"header":{"parameterUnit":"m.s-1","parameterCategory":1,"la1":30.2991,"la2":30.254,"lo1":-89.0895,"lo2":-89.0444,"dy":0.0017,"dx":0.0017,"nx":28,"ny":28,"refTime":"2025-01-08T03:00:00:Z","depth":0,"parameterNumber":2,"parameterNumberName":"U-component_of_WINDS"},"data":[0,0,0,0,0,0,0,0,0,0,0,0,0,0,0,0,0,0,0,0,0,0,0,0,0,0,0,0,0,0,0,0,0,0,0,0,0,0,0,0,0,0,0,0,0,0,0,0,0,0,0,0,0,0,0,0,0,0,-0.8159,-0.816,0,-0.8242,-0.8243,-0.8244,-0.8209,-0.8207,-0.8205,-0.8203,-0.8292,-0.8296,-0.83,0,0,0,0,0,0,0,0,0,0,0,0,0,-0.7971,-0.7974,-0.8159,-0.816,-0.8161,-0.8242,-0.8243,-0.8245,-0.8209,-0.8206,-0.8204,-0.8202,-0.829,-0.8295,-0.83,0,0,0,0,0,0,0,0,0,0,0,0,0,-0.8053,-0.7976,-0.8159,-0.8153,-0.8153,-0.8242,-0.8243,-0.8245,-0.8209,-0.8206,-0.8203,-0.8201,-0.8289,-0.8295,-0.8301,-0.8402,0,0,-0.8321,-0.8323,0,0,0,0,0,0,0,0,-0.8049,-0.806,-0.8153,-0.8153,-0.8154,-0.8212,-0.821,-0.8298,-0.821,-0.8188,-0.8203,-0.8199,-0.8268,-0.8276,-0.8298,-0.8406,-0.841,-0.8321,-0.8325,-0.8328,-0.833,0,0,0,0,0,0,0,-0.8043,-0.8056,-0.8192,-0.8154,-0.8155,-0.8147,-0.8155,-0.8226,-0.8244,-0.819,-0.8188,-0.8198,-0.8268,-0.8292,-0.83,-0.8411,-0.8321,-0.8327,-0.8331,-0.8333,-0.8604,-0.8608,0,0,0,0,0,0,-0.8037,-0.8052,-0.8189,-0.8195,-0.8093,-0.8153,-0.8162,-0.8196,-0.8243,-0.8247,-0.82,-0.8196,-0.8283,-0.8293,-0.8303,-0.8424,-0.8328,-0.8334,-0.8337,-0.8601,-0.8605,-0.8609,0,0,0,0,0,0,-0.8033,-0.8049,-0.8186,-0.8123,-0.8139,-0.8159,-0.8198,-0.82,-0.8224,-0.8251,-0.8254,-0.8222,-0.8281,-0.8294,-0.8377,-0.8426,-0.8337,-0.8342,-0.8597,-0.8602,-0.8607,-0.8667,0,0,0,0,0,0,-0.8028,-0.8048,-0.8086,-0.8124,-0.8143,-0.8258,-0.8201,-0.8204,-0.8235,-0.823,-0.8272,-0.8276,-0.8279,-0.8368,-0.8383,-0.8434,-0.8347,-0.8593,-0.8599,-0.8605,-0.866,-0.8673,-0.8684,0,0,0,0,0,-0.8021,-0.8101,-0.8088,-0.8105,-0.8191,-0.8261,-0.8272,-0.8273,-0.8239,-0.8278,-0.8295,-0.8275,-0.8418,-0.8376,-0.8394,-0.8447,-0.859,-0.8598,-0.8605,-0.8655,-0.8671,-0.8684,0,0,0,0,0,0,-0.807,-0.8106,-0.8092,-0.8186,-0.8221,-0.8255,-0.8304,-0.8289,-0.8335,-0.8329,-0.8329,-0.8339,-0.8424,-0.8444,-0.8397,-0.8546,-0.8499,-0.851,-0.8531,-0.8546,-0.8557,-0.8552,-0.8353,0,0,0,0,0,-0.8092,-0.8145,-0.8173,-0.8253,-0.8271,-0.8285,-0.8315,-0.8313,-0.8349,-0.8364,-0.8387,-0.8424,-0.8477,-0.8512,-0.8562,-0.8662,-0.8671,-0.8707,-0.8719,-0.8728,-0.8739,-0.8793,-0.8809,-0.8634,-0.8634,-0.8634,0,0,-0.8137,-0.8163,-0.8197,-0.8264,-0.829,-0.8346,-0.8297,-0.8359,-0.8401,-0.8374,-0.8453,-0.8471,-0.8512,-0.8604,-0.8645,-0.8623,-0.8789,-0.8738,-0.8745,-0.8751,-0.8802,-0.8819,-0.8834,-0.8639,-0.8638,-0.8637,0,0,-0.8249,-0.8274,-0.8343,-0.837,-0.841,-0.8418,-0.8435,-0.8471,-0.8481,-0.8561,-0.8541,-0.8591,-0.8683,-0.8713,-0.874,-0.8861,-0.8845,-0.8877,-0.894,-0.8992,-0.9006,-0.9019,-0.9063,-0.9078,-0.8887,-0.8887,-0.8887,0,-0.8301,-0.8384,-0.8381,-0.8444,-0.8474,-0.8449,-0.852,-0.8547,-0.8602,-0.8624,-0.8596,-0.871,-0.8736,-0.8834,-0.8864,-0.8886,-0.8906,-0.8874,-0.9004,-0.9017,-0.9028,-0.907,-0.9086,-0.8891,-0.8891,-0.889,-0.889,0,-0.8447,-0.8504,-0.8555,-0.8608,-0.8643,-0.871,-0.8717,-0.8753,-0.8747,-0.8758,-0.8839,-0.8869,-0.8925,-0.8947,-0.8942,-0.9045,-0.9029,-0.9003,-0.8956,-0.9049,-0.9088,-0.9104,-0.8897,-0.8895,-0.8894,-0.8893,0,0,-0.8594,-0.8642,-0.8661,-0.8684,-0.8726,-0.8771,-0.8836,-0.8889,-0.8921,-0.8959,-0.9014,-0.9091,-0.9066,-0.9097,-0.9095,-0.9141,-0.9236,-0.9109,-0.911,-0.9133,-0.9351,-0.9371,-0.939,-0.9224,-0.9227,-0.9229,-0.9348,0,-0.871,-0.8823,-0.8821,-0.8927,-0.898,-0.8957,-0.9014,-0.9046,-0.9057,-0.9105,-0.9117,-0.9172,-0.9136,-0.9154,-0.9198,-0.9215,-0.928,-0.9206,-0.9277,-0.9279,-0.9269,-0.9411,-0.9433,-0.9543,-0.9363,-0.9366,-0.9368,0,-0.8861,-0.8903,-0.9013,-0.9046,-0.9068,-0.9119,-0.9168,-0.9213,-0.9248,-0.9253,-0.9287,-0.9277,-0.9343,-0.9292,-0.9384,-0.9334,-0.9363,-0.9375,-0.9379,-0.9387,-0.933,-0.9424,-0.9579,-0.9596,-0.9392,-0.939,-0.9388,0,-0.8959,-0.9043,-0.912,-0.914,-0.918,-0.9216,-0.9235,-0.9267,-0.9299,-0.9341,-0.9361,-0.9411,-0.9439,-0.9477,-0.9481,-0.9444,-0.9574,-0.9523,-0.9581,-0.9581,-0.9612,-0.961,-0.9774,-0.9627,-0.9627,-0.9627,-0.9626,0,-0.909,-0.9159,-0.9164,-0.9212,-0.9288,-0.9284,-0.936,-0.9375,-0.9404,-0.9454,-0.9437,-0.9485,-0.9486,-0.9535,-0.9538,-0.9614,-0.9627,-0.9633,-0.9634,-0.9636,-0.9635,-0.9656,-0.9649,-0.9631,-0.963,-0.9629,-0.9629,0,-0.9213,-0.9219,-0.9302,-0.9332,-0.9341,-0.9396,-0.9422,-0.9468,-0.9476,-0.954,-0.9555,-0.9569,-0.9626,-0.9633,-0.9699,-0.9701,-0.9793,-0.9785,-0.9781,-0.978,-0.9838,-0.9833,-1.0023,-1.0048,-0.9883,-0.9885,-0.9886,0,-0.9297,-0.9349,-0.9384,-0.9416,-0.9436,-0.9488,-0.952,-0.9518,-0.9552,-0.9595,-0.9636,-0.969,-0.9734,-0.9825,-0.9842,-0.9893,-0.9886,-0.9949,-0.9894,-0.9894,-0.9888,-0.9886,-0.9891,-0.996,-0.9962,-0.9964,-0.9965,0,-0.9446,-0.9446,-0.9492,-0.9539,-0.9577,-0.9614,-0.9649,-0.9676,-0.9679,-0.9718,-0.9775,-0.9808,-0.9875,-0.993,-0.9979,-0.9998,-0.9983,-0.9982,-0.9998,-1.0002,-0.9998,-1.0002,-0.9812,-0.9978,-0.9977,-0.9976,-0.9975,-0.9974,-0.9553,-0.9598,-0.9629,-0.9681,-0.9706,-0.9739,-0.9783,-0.9796,-0.9844,-0.9897,-0.9893,-0.9956,-0.9989,-1.0053,-1.0076,-1.0126,-1.0105,-1.0128,-1.0135,-1.0141,-1.0147,-0.9988,-1.0135,-1.0134,-1.0134,-1.0134,-1.0133,0,-0.9701,-0.972,-0.9767,-0.9816,-0.9856,-0.9835,-0.9873,-0.9908,-0.9964,-0.9995,-1.0038,-1.0103,-1.0155,-1.0175,-1.0226,-1.0262,-1.0256,-1.0276,-1.0274,-1.0279,-1.0162,-1.0144,-1.028,-1.028,-1.028,-1.028,-1.028,-1.028,-0.9783,-0.9859,-0.9862,-0.995,-0.9968,-1.0029,-1.0052,-1.0082,-1.0107,-1.018,-1.0223,-1.0235,-1.0262,-1.0314,-1.0361,-1.0366,-1.0386,-1.0409,-1.0411,-1.0302,-1.0287,-1.0273,-1.0256,-1.0413,-1.0413,-1.0523,-1.0525,-1.0525]},{"header":{"parameterUnit":"m.s-1","parameterCategory":1,"la1":30.2991,"la2":30.254,"lo1":-89.0895,"lo2":-89.0444,"dy":0.0017,"dx":0.0017,"nx":28,"ny":28,"refTime":"2025-01-08T03:00:00:Z","depth":0,"parameterNumber":3,"parameterNumberName":"V-component_of_WINDS"},"data":[0,0,0,0,0,0,0,0,0,0,0,0,0,0,0,0,0,0,0,0,0,0,0,0,0,0,0,0,0,0,0,0,0,0,0,0,0,0,0,0,0,0,0,0,0,0,0,0,0,0,0,0,0,0,0,0,0,0,-5.6753,-5.6754,0,-5.6862,-5.6863,-5.6865,-5.6777,-5.6773,-5.6769,-5.6766,-5.6874,-5.688,-5.6886,0,0,0,0,0,0,0,0,0,0,0,0,0,-5.6463,-5.6469,-5.6753,-5.6754,-5.6756,-5.6862,-5.6864,-5.6865,-5.6777,-5.6773,-5.6768,-5.6764,-5.6872,-5.6879,-5.6887,0,0,0,0,0,0,0,0,0,0,0,0,0,-5.6582,-5.6471,-5.6753,-5.6725,-5.6723,-5.6862,-5.6864,-5.6865,-5.6778,-5.6773,-5.6767,-5.6762,-5.6869,-5.6879,-5.6888,-5.7058,0,0,-5.6917,-5.6921,0,0,0,0,0,0,0,0,-5.6576,-5.6593,-5.6728,-5.6727,-5.6726,-5.68,-5.6801,-5.693,-5.678,-5.6757,-5.6766,-5.6759,-5.6854,-5.6864,-5.6897,-5.7064,-5.7068,-5.6918,-5.6924,-5.6928,-5.6931,0,0,0,0,0,0,0,-5.6567,-5.6588,-5.6796,-5.673,-5.6728,-5.6705,-5.6716,-5.6825,-5.6835,-5.6759,-5.6753,-5.6767,-5.6852,-5.6888,-5.6899,-5.707,-5.6918,-5.6926,-5.6932,-5.6936,-5.7379,-5.7385,0,0,0,0,0,0,-5.6563,-5.6581,-5.6792,-5.6799,-5.6635,-5.6715,-5.6727,-5.6782,-5.6834,-5.6837,-5.6772,-5.6763,-5.6874,-5.6888,-5.6902,-5.7104,-5.6928,-5.6937,-5.6942,-5.7373,-5.7381,-5.7387,0,0,0,0,0,0,-5.6557,-5.6582,-5.6788,-5.6689,-5.6713,-5.6726,-5.6788,-5.6787,-5.6823,-5.6844,-5.6845,-5.6807,-5.687,-5.6889,-5.702,-5.7106,-5.6941,-5.695,-5.7366,-5.7375,-5.7384,-5.751,0,0,0,0,0,0,-5.6549,-5.6581,-5.6647,-5.6691,-5.6719,-5.6906,-5.6794,-5.6793,-5.684,-5.6829,-5.6877,-5.6879,-5.6868,-5.7006,-5.703,-5.7116,-5.6957,-5.7358,-5.737,-5.7381,-5.7498,-5.7522,-5.7542,0,0,0,0,0,-5.6539,-5.6678,-5.6651,-5.6677,-5.6802,-5.6911,-5.6927,-5.6912,-5.6847,-5.6913,-5.6926,-5.6878,-5.7093,-5.7021,-5.7046,-5.7137,-5.7353,-5.7367,-5.738,-5.7488,-5.7517,-5.7542,0,0,0,0,0,0,-5.6642,-5.6683,-5.6654,-5.6811,-5.6859,-5.6896,-5.6979,-5.6944,-5.7009,-5.6996,-5.6973,-5.6984,-5.7122,-5.7143,-5.7061,-5.7303,-5.7212,-5.7232,-5.7285,-5.7314,-5.7335,-5.7328,-5.6965,0,0,0,0,0,-5.6684,-5.6771,-5.68,-5.6936,-5.6962,-5.6967,-5.7014,-5.6998,-5.7045,-5.7064,-5.7087,-5.7134,-5.7212,-5.7264,-5.7337,-5.75,-5.7508,-5.7575,-5.7597,-5.7615,-5.7632,-5.7718,-5.7748,-5.7432,-5.7432,-5.7432,0,0,-5.677,-5.6803,-5.6859,-5.6958,-5.6993,-5.7082,-5.6984,-5.7082,-5.7147,-5.7079,-5.7204,-5.7223,-5.7273,-5.7421,-5.7487,-5.7442,-5.7721,-5.7633,-5.7647,-5.7654,-5.7735,-5.7765,-5.7792,-5.7441,-5.744,-5.7438,0,0,-5.6972,-5.7006,-5.7123,-5.716,-5.7214,-5.7216,-5.7244,-5.7287,-5.7297,-5.7422,-5.7372,-5.7448,-5.7584,-5.7621,-5.7658,-5.7873,-5.783,-5.7897,-5.8013,-5.8098,-5.8122,-5.8144,-5.822,-5.8247,-5.7914,-5.7914,-5.7914,0,-5.7072,-5.7205,-5.7187,-5.7289,-5.7333,-5.7276,-5.7392,-5.7428,-5.7503,-5.7534,-5.7483,-5.7651,-5.7681,-5.7836,-5.7888,-5.792,-5.795,-5.7891,-5.8121,-5.8142,-5.8163,-5.8234,-5.8263,-5.7922,-5.7921,-5.792,-5.7919,0,-5.7324,-5.7417,-5.7504,-5.7579,-5.7633,-5.7742,-5.7738,-5.7795,-5.7774,-5.778,-5.7908,-5.7942,-5.802,-5.8055,-5.8036,-5.8207,-5.8177,-5.8124,-5.8032,-5.8201,-5.8267,-5.8295,-5.7933,-5.793,-5.7928,-5.7926,0,0,-5.7596,-5.7658,-5.7691,-5.7723,-5.7778,-5.7848,-5.7953,-5.8031,-5.8079,-5.8132,-5.8218,-5.8334,-5.8284,-5.8326,-5.8309,-5.8383,-5.8549,-5.832,-5.8321,-5.8361,-5.8739,-5.8778,-5.8811,-5.8521,-5.8527,-5.8531,-5.8734,0,-5.78,-5.7984,-5.797,-5.8144,-5.8228,-5.8174,-5.8265,-5.8308,-5.8316,-5.8388,-5.8396,-5.8478,-5.8407,-5.8432,-5.8503,-5.8514,-5.8625,-5.8499,-5.86,-5.8604,-5.8589,-5.8846,-5.8888,-5.9079,-5.876,-5.8765,-5.8768,0,-5.8063,-5.8126,-5.8308,-5.8349,-5.8383,-5.8466,-5.8535,-5.8604,-5.865,-5.8651,-5.8698,-5.8668,-5.8772,-5.8678,-5.8819,-5.8734,-5.8774,-5.8786,-5.8793,-5.8801,-5.8696,-5.886,-5.9139,-5.9168,-5.8809,-5.8806,-5.8803,0,-5.8241,-5.8371,-5.8497,-5.8526,-5.8577,-5.8636,-5.866,-5.8701,-5.8747,-5.8807,-5.8837,-5.8907,-5.8946,-5.9,-5.899,-5.8922,-5.9133,-5.9039,-5.9136,-5.9136,-5.9183,-5.918,-5.9471,-5.921,-5.9209,-5.9209,-5.9208,0,-5.847,-5.8584,-5.8578,-5.8655,-5.878,-5.8761,-5.8884,-5.89,-5.8937,-5.9015,-5.8972,-5.9046,-5.9028,-5.91,-5.9092,-5.921,-5.9227,-5.923,-5.9226,-5.9234,-5.9233,-5.9259,-5.9246,-5.9216,-5.9214,-5.9213,-5.9212,0,-5.8691,-5.8692,-5.8825,-5.8862,-5.8874,-5.8964,-5.8995,-5.9066,-5.9071,-5.917,-5.9192,-5.9199,-5.9282,-5.9277,-5.9371,-5.9365,-5.951,-5.9491,-5.9495,-5.9491,-5.9588,-5.9578,-5.9906,-5.9947,-5.9659,-5.9662,-5.9664,0,-5.8837,-5.8923,-5.897,-5.9019,-5.9047,-5.9128,-5.9175,-5.9159,-5.921,-5.9268,-5.9333,-5.9412,-5.9474,-5.9609,-5.9621,-5.9692,-5.9674,-5.9784,-5.9684,-5.9689,-5.9675,-5.967,-5.9677,-5.9803,-5.9807,-5.9809,-5.9811,0,-5.9096,-5.9092,-5.9163,-5.9234,-5.9292,-5.9347,-5.9397,-5.944,-5.9429,-5.9488,-5.9573,-5.9621,-5.9717,-5.9795,-5.9862,-5.9884,-5.9846,-5.9843,-5.9869,-5.9877,-5.9875,-5.9876,-5.9547,-5.9835,-5.9833,-5.9831,-5.983,-5.9829,-5.9283,-5.9357,-5.9401,-5.948,-5.9516,-5.9564,-5.9633,-5.9646,-5.9717,-5.9794,-5.978,-5.9875,-5.9916,-6.0003,-6.0031,-6.0104,-6.0064,-6.0102,-6.0112,-6.0121,-6.0132,-5.9864,-6.0116,-6.0115,-6.0114,-6.0114,-6.0113,0,-5.9539,-5.9564,-5.9638,-5.971,-5.9772,-5.9732,-5.9784,-5.9839,-5.9923,-5.9966,-6.0028,-6.0125,-6.02,-6.0218,-6.029,-6.0345,-6.0329,-6.0364,-6.0359,-6.0365,-6.0164,-6.0134,-6.0375,-6.0375,-6.0375,-6.0375,-6.0375,-6.0375,-5.968,-5.9801,-5.9802,-5.994,-5.9963,-6.0057,-6.0091,-6.0133,-6.0167,-6.0277,-6.034,-6.0352,-6.0384,-6.0457,-6.0524,-6.0527,-6.0555,-6.0598,-6.0594,-6.0405,-6.0379,-6.0354,-6.0326,-6.0604,-6.0604,-6.0788,-6.079,-6.0792]}]]